User: anonymous   Login
Location: Unspecified
(0.0000°N, 0.0000°E)
Time: 23:59:54
(UTC+00:00)
Language:

Nadezhda 6 - Orbit

View from above orbital plane
View from above orbital plane
View from above satellite
View from above satellite

Ground track
Ground track

The orbit data is extracted from the following two-line orbital elements,

1 26384U 00033A   21023.75560570  .00000021  00000-0  11908-4 0  9998
2 26384  97.8347  66.1442 0014474 164.4798 195.6843 14.66837792 99776
Epoch (UTC): 23 January 2021 18:08:04
Eccentricity: 0.0014474
inclination: 97.8347°
perigee height: 661 km
apogee height: 681 km
right ascension of ascending node: 66.1442°
argument of perigee: 164.4798°
revolutions per day: 14.66837792
mean anomaly at epoch: 195.6843°
orbit number at epoch: 9977

The dashed part of the orbit path shows where the satellite is in the earth's shadow,  

DLR